Regional Weather Roundup
Issued by NWS

Home | Current Version | Previous Version | Text Only | Print | Product List | Glossary Off
Versions: 1 2 3 4 5 6 7 8 9 10 11 12 13 14 15 16 17 18 19 20 21 22 23 24 25 26 27 28 29 30 31 32 33 34 35 36 37 38 39 40 41 42 43 44 45 46 47 48 49 50

000
ASUS45 KBOU 250810
RWRCO

WEATHER ROUNDUP FOR COLORADO
NATIONAL WEATHER SERVICE DENVER/BOULDER CO
200 AM MDT WED APR 25 2018

NOTE: "FAIR" INDICATES FEW OR NO CLOUDS BELOW 12000 FEET WITH NO
SIGNIFICANT WEATHER AND/OR OBSTRUCTIONS TO VISIBILITY.

COZ001>005-013-030-031-250900-
...NORTHWEST COLORADO...

CITY           SKY/WX    TMP DP  RH WIND       PRES   REMARKS
CRAIG          FAIR      26  21  81 CALM      30.41S
HAYDEN         FAIR      30  22  72 CALM      30.41S
MEEKER         FAIR      28  21  75 CALM      30.40S
RANGELY        FAIR      37  20  50 NE15      30.39F
RABBIT EARS PA FAIR      21  19  93 W8        30.39F WCI  12
STEAMBOAT SPGS FAIR      29  20  69 CALM      30.40S
WALDEN         FAIR      14  10  85 SE8       30.41F WCI   3
$$

COZ006>008-011-250900-
...WEST CENTRAL VALLEYS...

CITY           SKY/WX    TMP DP  RH WIND       PRES   REMARKS
GRAND JUNCTION FAIR      44  16  32 NE5       30.33S
MONTROSE       FAIR      37  19  48 SE8       30.36R
EAGLE          FAIR      33  21  61 CALM      30.41R
RIFLE          FAIR      34  24  67 E3        30.38R
DELTA          FAIR      42  23  48 NE6       30.33R
NUCLA          FAIR      46  12  25 CALM      30.34S
$$

COZ017>023-064>068-250900-
...SOUTHWEST COLORADO...

CITY           SKY/WX    TMP DP  RH WIND       PRES   REMARKS
DURANGO        FAIR      52  17  25 CALM      30.19R
CORTEZ         FAIR      41  18  39 CALM      30.22R
PAGOSA SPRINGS MOCLDY    46  24  42 CALM      30.23F
TELLURIDE      FAIR      32  19  58 CALM      30.38F
WOLF CREEK PAS FAIR      27  16  63 N12       30.44S WCI  16
$$

COZ009-010-012-014-032>034-037-058>063-250900-
...CENTRAL COLORADO...

CITY           SKY/WX    TMP DP  RH WIND       PRES   REMARKS
ASPEN          FAIR      27  19  72 S6        30.37R WCI  20
BUENA VISTA    CLOUDY    30  27  89 SE6       30.39F WCI  24
COPPER MTN     NOT AVBL
BERTHOUD PASS  CLOUDY    12   3  67 NW15G24   30.37F WCI  -4
COTTONWOOD PAS FOG       32  30  93 CALM      30.38F VSB 1/2
GUNNISON       FAIR      30  18  60 S3        30.35R
GRANBY         FAIR      26  19  76 E3        30.41S
KREMMLING      FAIR      32  27  80 CALM      30.41F
LEADVILLE      FAIR      21  19  92 NE7       30.37F WCI  12
MONARCH PASS   FAIR      21   5  49 W22       30.48S WCI   5
SALIDA         CLOUDY    32  30  91 SE5       30.47F WCI  27
SUNLIGHT       FAIR      21  10  63 NE3       30.44F
WILKERSON PASS CLOUDY   N/A N/A N/A NW7       30.39F
$$

COZ069>075-250900-
...SAN LUIS VALLEY/SANGRE DE CRISTO MOUNTAINS...

CITY           SKY/WX    TMP DP  RH WIND       PRES   REMARKS
ALAMOSA        CLOUDY    36  23  59 N6        30.30R
DEL NORTE      NOT AVBL
LA VETA PASS   FOG       21  19  93 MISG      30.47S VSB 3/4
SAGUACHE       NOT AVBL
$$

COZ035-036-038>040-250900-
...NORTHERN COLORADO FRONT RANGE...

CITY           SKY/WX    TMP DP  RH WIND       PRES   REMARKS
DENVER INTL AP CLOUDY    36  27  69 CALM      30.40F
AURORA         CLOUDY    34  27  74 CALM      30.40F
FRONT RANGE AP CLOUDY    37  30  78 CALM      30.41F
ERIE MUNI ARPT FAIR      37  32  82 CALM      30.46F
BOULDER MUN AP FAIR      36  32  87 CALM      30.40F
CENTENNIAL     CLOUDY    34  32  92 CALM      30.39F
BROOMFIELD     CLOUDY    36  32  87 CALM      30.41F
FORT COLLINS   CLOUDY    37  29  72 CALM      30.41F
LONGMONT       CLOUDY    39  33  78 CALM      30.42F
$$

COZ041-046-047-076>085-087-088-250900-
...PIKES PEAK/PALMER DIVIDE AND SOUTHERN FOOTHILLS...

CITY           SKY/WX    TMP DP  RH WIND       PRES   REMARKS
COLO. SPRINGS  FAIR      31  27  85 CALM      30.40F
A. F. ACADEMY  FAIR      25  24  96 NW6       30.38F WCI  18
SCHRIEVER AFB  NOT AVBL
CHEYENNE MTN   CLOUDY    29  27  92 N5        30.33F WCI  24
ELLICOTT         N/A    N/A N/A N/A N7        30.38F
FALCON         CLOUDY    30  28  92 N5        30.40F WCI  25
FORT CARSON    CLOUDY    35  31  84 NW3       30.39F
LIMON          FAIR      28  26  92 NW8       30.38F WCI  20
MONUMENT HILL  CLOUDY    28  27  93 NW3       30.40F
CANON CITY     MOCLDY    36  34  93 CALM      30.40F
WALSENBURG     NOT AVBL
TRINIDAD       LGT SNOW  32  32 100 S3        30.41F FOG
$$

COZ042>045-048>051-090-091-250900-
...NORTHEAST COLORADO...

CITY           SKY/WX    TMP DP  RH WIND       PRES   REMARKS
GREELEY ARPT   FAIR      35  29  78 CALM      30.42F
AKRON          MOCLDY    29  27  92 W10       30.39F WCI  20
BURLINGTON     FAIR      32  29  88 N13       30.37F WCI  22
WRAY           CLOUDY    32  32 100 W5        30.40F WCI  27
YUMA           CLOUDY    28  27  93 NW8       30.39F WCI  20
STERLING       NOT AVBL
HOLYOKE        FAIR      37  32  81 NW10      30.39F
FORT MORGAN    FAIR      29  25  84 NW8       30.41F WCI  21
$$

COZ086-089-092>099-250900-
...SOUTHEAST COLORADO...

CITY           SKY/WX    TMP DP  RH WIND       PRES   REMARKS
PUEBLO         CLOUDY    37  36  96 NW5       30.41F
LA JUNTA       FAIR      37  34  89 W9        30.41F
LAMAR          FAIR      38  33  82 NW12      30.38F
SPRINGFIELD      N/A     35  33  92 NW17G28   30.36F WCI  25
$$



USA.gov is the U.S. government's official web portal to all federal, state and local government web resources and services.